New York, NY

8:19 AM EDT on August 22, 2017 (GMT -0400)
La Guardia

Weather History for KLGA - July, 2012

Change the Weather History Date:

Sunday, July 8, 2012

  Actual Average Record
Temperature  
Mean Temperature 84 °F 77 °F  
Max Temperature 92 °F 85 °F 99 °F (1993)
Min Temperature 75 °F 69 °F 60 °F (1984)
Degree Days  
Heating Degree Days 0 0  
Month to date heating degree days 0 0  
Since 1 June heating degree days 11 16  
Since 1 July heating degree days 0 0  
Cooling Degree Days 19 12  
Month to date cooling degree days 154 93  
Year to date cooling degree days 532 390  
Since 1 June cooling degree days 409 324  
Growing Degree Days 33 (Base 50)    
Moisture  
Dew Point 66 °F    
Average Humidity 62    
Maximum Humidity 94    
Minimum Humidity 30    
Precipitation  
Precipitation 0.07 in 0.13 in 1.24 in (1987)
Month to date precipitation 0.36 1.01  
Year to date precipitation 17.25 22.64  
Snow  
Snow 0.00 in 0.00 in - ()
Month to date snowfall 0.0 0.0  
Since 1 July snowfall 0.0 0.0  
Snow Depth 0.00 in    
Sea Level Pressure  
Sea Level Pressure 29.83 in    
Wind  
Wind Speed 6 mph (ENE)    
Max Wind Speed 17 mph    
Max Gust Speed 20 mph    
Visibility 9 miles    
Events Rain , Thunderstorm    
T = Trace of Precipitation, MM = Missing Value Source: NWS Daily Summary

Daily Weather History Graph

Daily Weather History Graph

Search for Another Location

Airport or City:

Trip Planner

Search our weather history database for the weather conditions in past years. The results will help you decide how hot, cold, wet, or windy it might be!

Date:

Astronomy

Jul. 08, 2012 Rise Set
Actual Time 5:32 AM EDT 8:28 PM EDT
Civil Twilight 4:59 AM EDT 9:01 PM EDT
Nautical Twilight 4:17 AM EDT 9:43 PM EDT
Astronomical Twilight 3:29 AM EDT 10:31 PM EDT
Moon 11:12 PM EDT (7/8) 10:58 AM EDT (7/8)
Length of Visible Light 16h 02m
Length of Day
14h 56m
Waning Gibbous, 73% of the Moon is Illuminated
Jul 8
Waning Gibbous
Jul 10
Last Quarter
Jul 19
New
Jul 26
First Quarter
Aug 1
Full

Hourly Weather History & Observations

Time (EDT) Temp. Heat Index Dew Point Humidity Pressure Visibility Wind Dir Wind Speed Gust Speed Precip Events Conditions
12:34 AM 77.0 °F - 71.6 °F 83% 29.84 in 2.5 mi NW 11.5 mph 25.3 mph 0.12 in Rain , Thunderstorm Heavy Thunderstorms and Rain
12:51 AM 75.0 °F - 71.1 °F 87% 29.82 in 6.0 mi NW 4.6 mph - 0.24 in Rain , Thunderstorm Light Thunderstorms and Rain
1:31 AM 75.2 °F - 71.6 °F 89% 29.81 in 10.0 mi Calm Calm - 0.00 in   Mostly Cloudy
1:51 AM 75.9 °F - 73.0 °F 91% 29.81 in 5.0 mi Calm Calm - 0.02 in Rain Heavy Rain
2:51 AM 77.0 °F - 72.0 °F 84% 29.81 in 10.0 mi Calm Calm - 0.05 in   Mostly Cloudy
3:51 AM 77.0 °F - 72.0 °F 84% 29.81 in 10.0 mi NNW 4.6 mph - N/A   Overcast
4:51 AM 75.9 °F - 73.0 °F 91% 29.83 in 8.0 mi NE 5.8 mph - N/A   Overcast
5:51 AM 75.9 °F - 71.1 °F 85% 29.83 in 9.0 mi ENE 5.8 mph - N/A   Overcast
6:51 AM 77.0 °F - 66.9 °F 71% 29.85 in 10.0 mi NE 5.8 mph - N/A   Mostly Cloudy
7:51 AM 78.1 °F - 66.0 °F 66% 29.87 in 10.0 mi East 3.5 mph - N/A   Mostly Cloudy
8:51 AM 80.1 °F 82.1 °F 66.0 °F 62% 29.86 in 10.0 mi NNE 4.6 mph - N/A   Mostly Cloudy
9:51 AM 82.0 °F 83.4 °F 64.0 °F 54% 29.86 in 10.0 mi WNW 3.5 mph - N/A   Mostly Cloudy
10:51 AM 82.9 °F 84.4 °F 64.0 °F 53% 29.85 in 10.0 mi East 4.6 mph - N/A   Mostly Cloudy
11:51 AM 84.9 °F 85.4 °F 62.1 °F 46% 29.85 in 10.0 mi ENE 4.6 mph - N/A   Mostly Cloudy
12:51 PM 87.1 °F 86.7 °F 60.1 °F 40% 29.85 in 10.0 mi ENE 6.9 mph - N/A   Mostly Cloudy
1:51 PM 89.1 °F 88.0 °F 57.9 °F 35% 29.83 in 10.0 mi NE 8.1 mph - N/A   Mostly Cloudy
2:51 PM 90.0 °F 88.1 °F 55.9 °F 31% 29.82 in 10.0 mi Calm Calm - N/A   Mostly Cloudy
3:51 PM 91.9 °F 90.3 °F 55.9 °F 30% 29.81 in 10.0 mi Calm Calm - N/A   Mostly Cloudy
4:51 PM 89.1 °F 88.2 °F 59.0 °F 36% 29.81 in 10.0 mi South 10.4 mph - N/A   Mostly Cloudy
5:51 PM 87.1 °F 87.0 °F 61.0 °F 41% 29.80 in 10.0 mi South 12.7 mph - N/A   Mostly Cloudy
6:51 PM 86.0 °F 86.3 °F 62.1 °F 44% 29.80 in 10.0 mi South 11.5 mph - N/A   Scattered Clouds
7:51 PM 84.9 °F 87.6 °F 66.9 °F 55% 29.81 in 10.0 mi South 11.5 mph 18.4 mph N/A   Mostly Cloudy
8:51 PM 82.9 °F 85.8 °F 68.0 °F 60% 29.82 in 10.0 mi South 11.5 mph - N/A   Mostly Cloudy
9:51 PM 82.0 °F 85.5 °F 69.1 °F 65% 29.84 in 10.0 mi South 5.8 mph - N/A   Mostly Cloudy
10:51 PM 82.0 °F 85.9 °F 70.0 °F 67% 29.85 in 10.0 mi Calm Calm - N/A   Mostly Cloudy
11:51 PM 82.0 °F 82.4 °F 60.1 °F 47% 29.87 in 10.0 mi NNE 12.7 mph - N/A   Mostly Cloudy